| time (UTC) | temp F | wind direction | speed knots | gust knots | rain 1hr in | rain 24hr in | rain mn in | humidity % | barometer mb |
| 20260508004513 | 49 | 114 | 0.0 | 0.0 | 0.00 | 0.00 | 0.00 | 85 | 1016.4 |
| 20260508004024 | 49 | 114 | 0.0 | 0.0 | 0.00 | 0.00 | 0.00 | 86 | 1016.3 |
| 20260508003510 | 49 | 114 | 0.0 | 0.0 | 0.00 | 0.00 | 0.00 | 86 | 1016.3 |
| 20260508003332 | 49 | 114 | 0.0 | 1.7 | 0.00 | 0.00 | 0.00 | 86 | 1016.3 |
| 20260508002512 | 49 | 114 | 0.0 | 2.6 | 0.00 | 0.00 | 0.00 | 86 | 1016.2 |
| 20260508002029 | 49 | 114 | 0.0 | 3.5 | 0.00 | 0.00 | 0.00 | 86 | 1016.3 |
| 20260508001517 | 49 | 114 | 1.7 | 3.5 | 0.00 | 0.00 | 0.00 | 87 | 1016.3 |
| 20260508001001 | 50 | 114 | 1.7 | 5.2 | 0.00 | 0.00 | 0.00 | 87 | 1016.3 |
| 20260508000503 | 50 | 111 | 1.7 | 5.2 | 0.00 | 0.00 | 0.00 | 86 | 1016.1 |
| 20260508000000 | 50 | 117 | 1.7 | 4.3 | 0.00 | 0.00 | 0.00 | 86 | 1016.2 |
| 20260507235459 | 50 | 79 | 1.7 | 3.5 | 0.00 | 0.00 | 0.00 | 86 | 1016.2 |
| 20260507234959 | 50 | 124 | 1.7 | 3.5 | 0.00 | 0.00 | 0.00 | 86 | 1016.2 |
| 20260507234457 | 50 | 127 | 1.7 | 3.5 | 0.00 | 0.00 | 0.00 | 86 | 1016.3 |
| 20260507234314 | 50 | 159 | 1.7 | 2.6 | 0.00 | 0.00 | 0.00 | 86 | 1016.3 |
| 20260507233456 | 50 | 159 | 0.9 | 2.6 | 0.00 | 0.00 | 0.00 | 85 | 1016.5 |
| 20260507232954 | 50 | 159 | 0.0 | 2.6 | 0.00 | 0.00 | 0.00 | 85 | 1016.4 |
| 20260507232454 | 50 | 159 | 0.9 | 2.6 | 0.00 | 0.00 | 0.00 | 85 | 1016.4 |
| 20260507231953 | 50 | 159 | 0.0 | 3.5 | 0.00 | 0.00 | 0.00 | 85 | 1016.5 |
| 20260507231453 | 51 | 159 | 0.9 | 3.5 | 0.00 | 0.00 | 0.00 | 85 | 1016.5 |
| 20260507230953 | 51 | 165 | 0.0 | 3.5 | 0.00 | 0.00 | 0.00 | 85 | 1016.6 |
| 20260507230503 | 51 | 117 | 1.7 | 3.5 | 0.00 | 0.00 | 0.00 | 85 | 1016.6 |
| 20260507225954 | 51 | 110 | 1.7 | 3.5 | 0.00 | 0.00 | 0.00 | 85 | 1016.7 |
| 20260507225453 | 51 | 162 | 0.9 | 3.5 | 0.00 | 0.00 | 0.00 | 84 | 1016.5 |
| 20260507224951 | 51 | 135 | 0.9 | 3.5 | 0.00 | 0.00 | 0.00 | 84 | 1016.6 |
| 20260507224451 | 51 | 125 | 1.7 | 3.5 | 0.00 | 0.00 | 0.00 | 84 | 1016.6 |
| 20260507224319 | 51 | 128 | 0.9 | 3.5 | 0.00 | 0.00 | 0.00 | 84 | 1016.7 |
| 20260507223449 | 51 | 128 | 0.9 | 2.6 | 0.00 | 0.00 | 0.00 | 84 | 1016.6 |
| 20260507222949 | 51 | 121 | 1.7 | 3.5 | 0.00 | 0.00 | 0.00 | 84 | 1016.6 |
| 20260507222446 | 51 | 159 | 1.7 | 3.5 | 0.00 | 0.00 | 0.00 | 84 | 1016.7 |
| 20260507221946 | 51 | 134 | 0.9 | 4.3 | 0.00 | 0.00 | 0.00 | 84 | 1016.7 |
| 20260507221447 | 51 | 117 | 0.9 | 4.3 | 0.00 | 0.00 | 0.00 | 84 | 1016.7 |
| 20260507221320 | 51 | 137 | 1.7 | 4.3 | 0.00 | 0.00 | 0.00 | 83 | 1016.7 |
| 20260507220447 | 51 | 135 | 0.9 | 3.5 | 0.00 | 0.00 | 0.00 | 83 | 1016.7 |
| 20260507215943 | 51 | 135 | 1.7 | 3.5 | 0.00 | 0.00 | 0.00 | 83 | 1016.7 |
| 20260507215445 | 51 | 135 | 1.7 | 4.3 | 0.00 | 0.00 | 0.00 | 83 | 1016.8 |
| 20260507215130 | 51 | 125 | 0.9 | 4.3 | 0.00 | 0.00 | 0.00 | 83 | 1016.8 |
| 20260507215033 | 51 | 130 | 2.6 | 4.3 | 0.00 | 0.00 | 0.00 | 83 | 1016.8 |
| 20260507213944 | 51 | 127 | 0.9 | 4.3 | 0.00 | 0.00 | 0.00 | 82 | 1016.8 |
| 20260507213443 | 51 | 124 | 1.7 | 4.3 | 0.00 | 0.00 | 0.00 | 82 | 1016.8 |
| 20260507212943 | 52 | 124 | 0.9 | 4.3 | 0.00 | 0.00 | 0.00 | 82 | 1016.8 |
| 20260507212442 | 52 | 138 | 0.9 | 3.5 | 0.00 | 0.00 | 0.00 | 82 | 1016.8 |
| 20260507211943 | 52 | 130 | 0.9 | 3.5 | 0.00 | 0.00 | 0.00 | 82 | 1016.7 |
| 20260507211443 | 52 | 130 | 1.7 | 3.5 | 0.00 | 0.00 | 0.00 | 82 | 1016.7 |
| 20260507210942 | 52 | 131 | 1.7 | 3.5 | 0.00 | 0.00 | 0.00 | 81 | 1016.6 |
| 20260507210443 | 52 | 133 | 0.9 | 4.3 | 0.00 | 0.00 | 0.00 | 81 | 1016.6 |
| 20260507205943 | 52 | 131 | 0.9 | 4.3 | 0.00 | 0.00 | 0.00 | 80 | 1016.5 |
| 20260507205446 | 52 | 135 | 0.9 | 2.6 | 0.00 | 0.00 | 0.00 | 80 | 1016.5 |
| 20260507204943 | 52 | 135 | 0.9 | 3.5 | 0.00 | 0.00 | 0.00 | 80 | 1016.5 |
| 20260507204442 | 52 | 135 | 0.9 | 4.3 | 0.00 | 0.00 | 0.00 | 80 | 1016.4 |
| 20260507203944 | 52 | 140 | 1.7 | 5.2 | 0.00 | 0.00 | 0.00 | 80 | 1016.3 |
| 20260507203442 | 52 | 124 | 2.6 | 5.2 | 0.00 | 0.00 | 0.00 | 79 | 1016.3 |
| 20260507202942 | 52 | 120 | 3.5 | 6.1 | 0.00 | 0.00 | 0.00 | 79 | 1016.3 |
| 20260507202442 | 52 | 157 | 2.6 | 6.1 | 0.00 | 0.00 | 0.00 | 79 | 1016.4 |
| 20260507201944 | 53 | 186 | 1.7 | 6.1 | 0.00 | 0.00 | 0.00 | 79 | 1016.3 |
| 20260507201802 | 53 | 121 | 2.6 | 6.1 | 0.00 | 0.00 | 0.00 | 78 | 1016.2 |
| 20260507200942 | 53 | 117 | 2.6 | 6.1 | 0.00 | 0.00 | 0.00 | 78 | 1016.1 |
| 20260507200442 | 53 | 114 | 1.7 | 6.1 | 0.00 | 0.00 | 0.00 | 78 | 1016.1 |
| 20260507195944 | 53 | 137 | 2.6 | 7.8 | 0.00 | 0.00 | 0.00 | 78 | 1016.0 |
| 20260507195444 | 53 | 134 | 3.5 | 7.8 | 0.00 | 0.00 | 0.00 | 77 | 1015.9 |
| 20260507195311 | 53 | 120 | 3.5 | 6.1 | 0.00 | 0.00 | 0.00 | 77 | 1015.8 |
| 20260507194439 | 53 | 165 | 2.6 | 6.1 | 0.00 | 0.00 | 0.00 | 77 | 1015.7 |
| 20260507194313 | 53 | 142 | 0.9 | 5.2 | 0.00 | 0.00 | 0.00 | 76 | 1015.7 |
| 20260507193439 | 53 | 116 | 2.6 | 7.8 | 0.00 | 0.00 | 0.00 | 76 | 1015.7 |
| 20260507192938 | 53 | 168 | 2.6 | 7.8 | 0.00 | 0.00 | 0.00 | 75 | 1015.6 |
| 20260507192440 | 53 | 185 | 1.7 | 7.8 | 0.00 | 0.00 | 0.00 | 75 | 1015.7 |
| 20260507191938 | 54 | 141 | 3.5 | 6.1 | 0.00 | 0.00 | 0.00 | 74 | 1015.7 |
| 20260507191637 | 54 | 131 | 3.5 | 6.1 | 0.00 | 0.00 | 0.00 | 73 | 1015.5 |
| 20260507191548 | 54 | 116 | 1.7 | 6.1 | 0.00 | 0.00 | 0.00 | 73 | 1015.6 |
| 20260507190436 | 54 | 149 | 2.6 | 5.2 | 0.00 | 0.00 | 0.00 | 72 | 1015.6 |
| 20260507185938 | 54 | 120 | 3.5 | 9.6 | 0.00 | 0.00 | 0.00 | 72 | 1015.6 |
| 20260507185435 | 54 | 145 | 3.5 | 9.6 | 0.00 | 0.00 | 0.00 | 72 | 1015.6 |
| 20260507185333 | 54 | 142 | 4.3 | 6.1 | 0.00 | 0.00 | 0.00 | 71 | 1015.6 |
| 20260507184557 | 55 | 128 | 3.5 | 6.1 | 0.00 | 0.00 | 0.00 | 70 | 1015.7 |
| 20260507183432 | 55 | 199 | 1.7 | 7.8 | 0.00 | 0.00 | 0.00 | 70 | 1015.6 |
| 20260507182934 | 55 | 151 | 3.5 | 7.8 | 0.00 | 0.00 | 0.00 | 68 | 1015.5 |
| 20260507182435 | 55 | 152 | 0.9 | 4.3 | 0.00 | 0.00 | 0.00 | 68 | 1015.5 |
| 20260507181932 | 0 | 168 | 4.3 | 4.3 | 0.00 | 0.00 | 0.00 | 1015.5 | |
| 20260507181433 | 56 | 179 | 3.5 | 3.5 | 0.00 | 0.00 | 0.00 | 67 | 1015.3 |
| 20260507181302 | 56 | 155 | 3.5 | 3.5 | 0.00 | 0.00 | 0.00 | 67 | 1015.3 |
| 20260507180432 | 56 | 144 | 3.5 | 3.5 | 0.00 | 0.00 | 0.00 | 67 | 1015.2 |
| 20260507175933 | 56 | 149 | 1.7 | 4.3 | 0.00 | 0.00 | 0.00 | 67 | 1015.2 |
| 20260507175433 | 56 | 135 | 4.3 | 5.2 | 0.00 | 0.00 | 0.00 | 67 | 1015.2 |
| 20260507174934 | 0 | 166 | 5.2 | 8.7 | 0.00 | 0.00 | 0.00 | 1015.2 | |
| 20260507174433 | 0 | 155 | 5.2 | 8.7 | 0.00 | 0.00 | 0.00 | 1015.1 | |
| 20260507174307 | 56 | 137 | 4.3 | 4.3 | 0.00 | 0.00 | 0.00 | 68 | 1015.2 |
| 20260507173741 | 56 | 154 | 3.5 | 4.3 | 0.00 | 0.00 | 0.00 | 68 | 1015.1 |
| 20260507172935 | 56 | 104 | 4.3 | 4.3 | 0.00 | 0.00 | 0.00 | 68 | 1015.1 |
| 20260507172433 | 56 | 104 | 4.3 | 4.3 | 0.00 | 0.00 | 0.00 | 68 | 1015.1 |
| 20260507171932 | 0 | 190 | 3.5 | 3.5 | 0.00 | 0.00 | 0.00 | 1015.1 | |
| 20260507171431 | 56 | 147 | 2.6 | 5.2 | 0.00 | 0.00 | 0.00 | 68 | 1015.1 |
| 20260507170920 | 56 | 86 | 2.6 | 5.2 | 0.00 | 0.00 | 0.00 | 68 | 1015.1 |
| 20260507170420 | 56 | 100 | 4.3 | 4.3 | 0.00 | 0.00 | 0.00 | 69 | 1015.1 |
| 20260507170250 | 56 | 109 | 0.0 | 1.7 | 0.00 | 0.00 | 0.00 | 69 | 1015.1 |
| 20260507165406 | 56 | 109 | 0.0 | 5.2 | 0.00 | 0.00 | 0.00 | 69 | 1015.2 |
| 20260507164906 | 56 | 109 | 2.6 | 5.2 | 0.00 | 0.00 | 0.00 | 69 | 1015.2 |
| 20260507164403 | 56 | 94 | 1.7 | 6.1 | 0.00 | 0.00 | 0.00 | 69 | 1015.2 |
| 20260507163904 | 56 | 87 | 3.5 | 6.1 | 0.00 | 0.00 | 0.00 | 69 | 1015.2 |
| 20260507163710 | 56 | 92 | 3.5 | 6.1 | 0.00 | 0.00 | 0.00 | 69 | 1015.2 |
| 20260507162905 | 56 | 89 | 1.7 | 6.1 | 0.00 | 0.00 | 0.00 | 69 | 1015.3 |
| 20260507162403 | 56 | 120 | 2.6 | 6.1 | 0.00 | 0.00 | 0.00 | 68 | 1015.3 |
| 20260507161900 | 56 | 104 | 1.7 | 5.2 | 0.00 | 0.00 | 0.00 | 69 | 1015.2 |
| 20260507161358 | 56 | 107 | 1.7 | 5.2 | 0.00 | 0.00 | 0.00 | 69 | 1015.3 |
| 20260507160854 | 56 | 79 | 1.7 | 5.2 | 0.00 | 0.00 | 0.00 | 68 | 1015.2 |
| 20260507160355 | 56 | 110 | 2.6 | 8.7 | 0.00 | 0.00 | 0.00 | 68 | 1015.2 |
| 20260507155852 | 56 | 85 | 3.5 | 8.7 | 0.00 | 0.00 | 0.00 | 68 | 1015.2 |
| 20260507155354 | 57 | 85 | 5.2 | 7.8 | 0.00 | 0.00 | 0.00 | 67 | 1015.2 |
| 20260507154852 | 57 | 125 | 4.3 | 7.8 | 0.00 | 0.00 | 0.00 | 67 | 1015.3 |
| 20260507154352 | 57 | 47 | 2.6 | 5.2 | 0.00 | 0.00 | 0.00 | 67 | 1015.3 |
| 20260507154217 | 57 | 111 | 3.5 | 6.1 | 0.00 | 0.00 | 0.00 | 64 | 1015.2 |
| 20260507153348 | 57 | 97 | 2.6 | 6.1 | 0.00 | 0.00 | 0.00 | 63 | 1015.2 |
| 20260507153224 | 57 | 85 | 1.7 | 4.3 | 0.00 | 0.00 | 0.00 | 63 | 1015.3 |
| 20260507152348 | 57 | 37 | 2.6 | 6.1 | 0.00 | 0.00 | 0.00 | 64 | 1015.3 |
| 20260507151848 | 57 | 102 | 1.7 | 6.1 | 0.00 | 0.00 | 0.00 | 63 | 1015.3 |
| 20260507151346 | 57 | 92 | 3.5 | 10.4 | 0.00 | 0.00 | 0.00 | 64 | 1015.3 |
| 20260507150845 | 57 | 114 | 2.6 | 10.4 | 0.00 | 0.00 | 0.00 | 62 | 1015.3 |
| 20260507150347 | 58 | 49 | 3.5 | 6.1 | 0.00 | 0.00 | 0.00 | 62 | 1015.2 |
| 20260507145845 | 58 | 97 | 1.7 | 5.2 | 0.00 | 0.00 | 0.00 | 62 | 1015.3 |
| 20260507145343 | 58 | 86 | 2.6 | 5.2 | 0.00 | 0.00 | 0.00 | 62 | 1015.3 |
| 20260507144846 | 58 | 179 | 2.6 | 3.5 | 0.00 | 0.00 | 0.00 | 61 | 1015.3 |
| 20260507144653 | 58 | 179 | 2.6 | 3.5 | 0.00 | 0.00 | 0.00 | 62 | 1015.4 |
| 20260507143841 | 58 | 100 | 3.5 | 5.2 | 0.00 | 0.00 | 0.00 | 60 | 1015.4 |
| 20260507143334 | 58 | 94 | 3.5 | 4.3 | 0.00 | 0.00 | 0.00 | 61 | 1015.4 |
| 20260507142835 | 58 | 117 | 1.7 | 3.5 | 0.00 | 0.00 | 0.00 | 63 | 1015.4 |
| 20260507142334 | 58 | 120 | 0.9 | 8.7 | 0.00 | 0.00 | 0.00 | 64 | 1015.5 |
| 20260507141833 | 58 | 120 | 1.7 | 8.7 | 0.00 | 0.00 | 0.00 | 62 | 1015.5 |
| 20260507141333 | 58 | 128 | 1.7 | 7.8 | 0.00 | 0.00 | 0.00 | 61 | 1015.5 |
| 20260507141209 | 58 | 106 | 3.5 | 7.8 | 0.00 | 0.00 | 0.00 | 61 | 1015.6 |
| 20260507140333 | 58 | 134 | 1.7 | 6.1 | 0.00 | 0.00 | 0.00 | 61 | 1015.6 |
| 20260507140215 | 59 | 109 | 2.6 | 6.1 | 0.00 | 0.00 | 0.00 | 59 | 1015.6 |
| 20260507135333 | 59 | 203 | 2.6 | 4.3 | 0.00 | 0.00 | 0.00 | 59 | 1015.6 |
| 20260507134834 | 59 | 121 | 2.6 | 4.3 | 0.00 | 0.00 | 0.00 | 58 | 1015.6 |
| 20260507134329 | 60 | 203 | 1.7 | 3.5 | 0.00 | 0.00 | 0.00 | 58 | 1015.7 |
| 20260507133829 | 60 | 178 | 0.0 | 3.5 | 0.00 | 0.00 | 0.00 | 58 | 1015.6 |
| 20260507133328 | 61 | 207 | 3.5 | 6.1 | 0.00 | 0.00 | 0.00 | 54 | 1015.6 |
| 20260507133159 | 62 | 179 | 4.3 | 6.1 | 0.00 | 0.00 | 0.00 | 54 | 1015.7 |
| 20260507132326 | 62 | 188 | 3.5 | 3.5 | 0.00 | 0.00 | 0.00 | 59 | 1015.7 |
| 20260507131825 | 61 | 202 | 2.6 | 3.5 | 0.00 | 0.00 | 0.00 | 54 | 1015.7 |
| 20260507131637 | 62 | 202 | 2.6 | 5.2 | 0.00 | 0.00 | 0.00 | 54 | 1015.8 |
| 20260507130831 | 63 | 114 | 3.5 | 5.2 | 0.00 | 0.00 | 0.00 | 54 | 1015.7 |
| 20260507130326 | 64 | 172 | 2.6 | 3.5 | 0.00 | 0.00 | 0.00 | 62 | 1015.7 |
| 20260507125821 | 64 | 68 | 3.5 | 4.3 | 0.00 | 0.00 | 0.00 | 62 | 1015.7 |
| 20260507125321 | 62 | 158 | 1.7 | 6.1 | 0.00 | 0.00 | 0.00 | 65 | 1015.8 |
| 20260507124812 | 62 | 118 | 4.3 | 7.8 | 0.00 | 0.00 | 0.00 | 65 | 1015.9 |
| 20260507124311 | 62 | 79 | 7.0 | 7.8 | 0.00 | 0.00 | 0.00 | 65 | 1015.9 |
| 20260507123810 | 62 | 80 | 5.2 | 7.8 | 0.00 | 0.00 | 0.00 | 65 | 1015.9 |
| 20260507123308 | 62 | 92 | 3.5 | 8.7 | 0.00 | 0.00 | 0.00 | 65 | 1015.9 |
| 20260507122804 | 62 | 96 | 5.2 | 8.7 | 0.00 | 0.00 | 0.00 | 65 | 1015.9 |
| 20260507122413 | 61 | 169 | 1.7 | 5.2 | 0.00 | 0.00 | 0.00 | 65 | 1015.9 |
| 20260507122352 | 61 | 61 | 3.5 | 5.2 | 0.00 | 0.00 | 0.00 | 65 | 1015.8 |
| 20260507121302 | 59 | 117 | 5.2 | 5.2 | 0.00 | 0.00 | 0.00 | 68 | 1016.1 |
| 20260507120802 | 59 | 130 | 4.3 | 4.3 | 0.00 | 0.00 | 0.00 | 68 | 1016.0 |
| 20260507120259 | 0 | 97 | 2.6 | 2.6 | 0.00 | 0.00 | 0.00 | 1016.1 | |
| 20260507115759 | 56 | 109 | 1.7 | 3.5 | 0.00 | 0.00 | 0.00 | 68 | 1016.1 |
| 20260507115248 | 56 | 120 | 3.5 | 4.3 | 0.00 | 0.00 | 0.00 | 68 | 1016.0 |
| 20260507115106 | 0 | 120 | 4.3 | 4.3 | 0.00 | 0.00 | 0.00 | 1016.1 | |
| 20260507114247 | 0 | 176 | 1.7 | 3.5 | 0.00 | 0.00 | 0.00 | 1016.2 | |
| 20260507114101 | 56 | 131 | 3.5 | 3.5 | 0.00 | 0.00 | 0.00 | 69 | 1016.3 |
| 20260507113244 | 56 | 147 | 1.7 | 1.7 | 0.00 | 0.00 | 0.00 | 69 | 1016.1 |
| 20260507112745 | 55 | 145 | 4.3 | 4.3 | 0.00 | 0.00 | 0.00 | 70 | 1016.2 |
| 20260507112244 | 55 | 145 | 4.3 | 4.3 | 0.00 | 0.00 | 0.00 | 74 | 1016.2 |
| 20260507111744 | 55 | 144 | 0.0 | 2.6 | 0.00 | 0.00 | 0.00 | 74 | 1016.3 |
| 20260507111246 | 55 | 142 | 2.6 | 2.6 | 0.00 | 0.00 | 0.00 | 74 | 1016.3 |
| 20260507110748 | 0 | 145 | 0.9 | 1.7 | 0.00 | 0.00 | 0.00 | 1016.3 | |
| 20260507110257 | 0 | 141 | 1.7 | 2.6 | 0.00 | 0.00 | 0.00 | 1016.4 | |
| 20260507105746 | 0 | 137 | 2.6 | 2.6 | 0.00 | 0.00 | 0.00 | 1016.4 | |
| 20260507105234 | 0 | 127 | 1.7 | 2.6 | 0.00 | 0.00 | 0.00 | 1016.3 | |
| 20260507105046 | 53 | 142 | 1.7 | 1.7 | 0.00 | 0.00 | 0.00 | 75 | 1016.4 |
| 20260507104232 | 53 | 142 | 0.9 | 2.6 | 0.00 | 0.00 | 0.00 | 75 | 1016.4 |
| 20260507103731 | 53 | 135 | 0.9 | 2.6 | 0.00 | 0.00 | 0.00 | 75 | 1016.4 |
| 20260507103233 | 53 | 135 | 0.9 | 2.6 | 0.00 | 0.00 | 0.00 | 77 | 1016.4 |
| 20260507102730 | 53 | 127 | 0.0 | 3.5 | 0.00 | 0.00 | 0.00 | 77 | 1016.4 |
| 20260507102229 | 53 | 127 | 1.7 | 3.5 | 0.00 | 0.00 | 0.00 | 77 | 1016.4 |
| 20260507101729 | 52 | 125 | 1.7 | 3.5 | 0.00 | 0.00 | 0.00 | 76 | 1016.5 |
| 20260507101229 | 52 | 125 | 0.0 | 3.5 | 0.00 | 0.00 | 0.00 | 76 | 1016.5 |
| 20260507100727 | 52 | 123 | 0.9 | 2.6 | 0.00 | 0.00 | 0.00 | 77 | 1016.5 |
| 20260507100225 | 52 | 123 | 0.9 | 1.7 | 0.00 | 0.00 | 0.00 | 78 | 1016.4 |
| 20260507095727 | 52 | 123 | 0.0 | 0.9 | 0.00 | 0.00 | 0.00 | 78 | 1016.4 |
| 20260507095226 | 52 | 123 | 0.0 | 1.7 | 0.00 | 0.00 | 0.00 | 78 | 1016.5 |
| 20260507094723 | 51 | 123 | 0.0 | 2.6 | 0.00 | 0.00 | 0.00 | 77 | 1016.5 |
| 20260507094225 | 51 | 120 | 0.9 | 2.6 | 0.00 | 0.00 | 0.00 | 78 | 1016.5 |
| 20260507093724 | 51 | 118 | 0.9 | 2.6 | 0.00 | 0.00 | 0.00 | 78 | 1016.5 |
| 20260507093226 | 51 | 113 | 0.0 | 0.0 | 0.00 | 0.00 | 0.00 | 79 | 1016.5 |
| 20260507092724 | 51 | 113 | 0.0 | 0.0 | 0.00 | 0.00 | 0.00 | 79 | 1016.3 |
| 20260507092225 | 51 | 113 | 0.0 | 1.7 | 0.00 | 0.00 | 0.00 | 79 | 1016.3 |
| 20260507091725 | 51 | 113 | 0.0 | 1.7 | 0.00 | 0.00 | 0.00 | 79 | 1016.3 |
| 20260507091225 | 51 | 113 | 0.0 | 1.7 | 0.00 | 0.00 | 0.00 | 79 | 1016.4 |
| 20260507090726 | 51 | 113 | 0.0 | 1.7 | 0.00 | 0.00 | 0.00 | 79 | 1016.4 |
| 20260507090225 | 51 | 113 | 0.9 | 1.7 | 0.00 | 0.00 | 0.00 | 79 | 1016.3 |
| 20260507085723 | 51 | 113 | 0.0 | 0.9 | 0.00 | 0.00 | 0.00 | 81 | 1016.3 |
| 20260507085221 | 51 | 113 | 0.0 | 1.7 | 0.00 | 0.00 | 0.00 | 81 | 1016.4 |
| 20260507084720 | 51 | 113 | 0.0 | 2.6 | 0.00 | 0.00 | 0.00 | 81 | 1016.4 |
| 20260507084221 | 51 | 113 | 0.9 | 5.2 | 0.00 | 0.00 | 0.00 | 81 | 1016.3 |
| 20260507084037 | 51 | 111 | 1.7 | 5.2 | 0.00 | 0.00 | 0.00 | 82 | 1016.3 |
| 20260507083211 | 51 | 111 | 2.6 | 4.3 | 0.00 | 0.00 | 0.00 | 84 | 1016.4 |
| 20260507082710 | 51 | 111 | 1.7 | 4.3 | 0.00 | 0.00 | 0.00 | 84 | 1016.3 |
| 20260507082204 | 51 | 111 | 0.0 | 3.5 | 0.00 | 0.00 | 0.00 | 84 | 1016.3 |
| 20260507081704 | 51 | 111 | 1.7 | 4.3 | 0.00 | 0.00 | 0.00 | 84 | 1016.4 |
| 20260507081204 | 50 | 110 | 3.5 | 4.3 | 0.00 | 0.00 | 0.00 | 85 | 1016.4 |
| 20260507080948 | 49 | 113 | 1.7 | 3.5 | 0.00 | 0.00 | 0.00 | 88 | 1016.3 |
| 20260507080206 | 49 | 158 | 3.5 | 3.5 | 0.00 | 0.00 | 0.00 | 88 | 1016.3 |
| 20260507075705 | 49 | 93 | 1.7 | 3.5 | 0.00 | 0.00 | 0.00 | 89 | 1016.3 |
| 20260507075204 | 49 | 66 | 3.5 | 3.5 | 0.00 | 0.00 | 0.00 | 89 | 1016.3 |
| 20260507074704 | 48 | 104 | 1.7 | 3.5 | 0.00 | 0.00 | 0.00 | 89 | 1016.2 |
| 20260507074206 | 48 | 104 | 0.9 | 3.5 | 0.00 | 0.00 | 0.00 | 89 | 1016.3 |
| 20260507073702 | 47 | 114 | 0.0 | 2.6 | 0.00 | 0.00 | 0.00 | 88 | 1016.2 |
| 20260507073201 | 47 | 158 | 0.9 | 2.6 | 0.00 | 0.00 | 0.00 | 88 | 1016.3 |
| 20260507072702 | 47 | 159 | 0.9 | 2.6 | 0.00 | 0.00 | 0.00 | 89 | 1016.3 |
| 20260507072200 | 47 | 152 | 0.9 | 1.7 | 0.00 | 0.00 | 0.00 | 89 | 1016.3 |
| 20260507071946 | 47 | 152 | 0.0 | 2.6 | 0.00 | 0.00 | 0.00 | 89 | 1016.3 |
| 20260507071325 | 47 | 110 | 0.9 | 2.6 | 0.00 | 0.00 | 0.00 | 90 | 1016.2 |
| 20260507071259 | 47 | 151 | 0.9 | 2.6 | 0.00 | 0.00 | 0.00 | 89 | 1016.2 |
| 20260507070200 | 47 | 110 | 0.0 | 2.6 | 0.00 | 0.00 | 0.00 | 90 | 1016.2 |
| 20260507065655 | 47 | 110 | 1.7 | 3.5 | 0.00 | 0.00 | 0.00 | 90 | 1016.1 |
| 20260507065443 | 47 | 110 | 0.9 | 3.5 | 0.00 | 0.00 | 0.00 | 90 | 1016.1 |
| 20260507064658 | 46 | 110 | 0.9 | 3.5 | 0.00 | 0.00 | 0.00 | 90 | 1016.1 |
| 20260507064155 | 46 | 75 | 1.7 | 3.5 | 0.00 | 0.00 | 0.00 | 90 | 1016.1 |
| 20260507063652 | 46 | 68 | 0.9 | 2.6 | 0.00 | 0.00 | 0.00 | 90 | 1016.1 |
| 20260507063151 | 46 | 68 | 0.0 | 3.5 | 0.00 | 0.00 | 0.00 | 90 | 1016.0 |
| 20260507062650 | 46 | 68 | 1.7 | 3.5 | 0.00 | 0.00 | 0.00 | 91 | 1016.0 |
| 20260507062151 | 46 | 66 | 0.0 | 1.7 | 0.00 | 0.00 | 0.00 | 91 | 1016.0 |
| 20260507061651 | 46 | 66 | 0.0 | 0.0 | 0.00 | 0.00 | 0.00 | 91 | 1016.0 |
| 20260507061437 | 46 | 66 | 0.0 | 0.0 | 0.00 | 0.00 | 0.00 | 91 | 1016.0 |
| 20260507060654 | 46 | 66 | 0.0 | 1.7 | 0.00 | 0.00 | 0.00 | 91 | 1015.9 |
| 20260507060434 | 46 | 42 | 0.0 | 1.7 | 0.00 | 0.00 | 0.00 | 91 | 1015.9 |
| 20260507055652 | 46 | 42 | 0.0 | 1.7 | 0.00 | 0.00 | 0.00 | 90 | 1015.9 |
| 20260507055156 | 45 | 42 | 0.0 | 1.7 | 0.00 | 0.00 | 0.00 | 91 | 1015.8 |
| 20260507054652 | 45 | 42 | 0.0 | 0.0 | 0.00 | 0.00 | 0.00 | 90 | 1015.9 |
| 20260507054154 | 45 | 42 | 0.0 | 0.0 | 0.00 | 0.00 | 0.00 | 90 | 1015.8 |
| 20260507053651 | 45 | 42 | 0.0 | 0.0 | 0.00 | 0.00 | 0.00 | 90 | 1015.8 |
| 20260507053148 | 45 | 42 | 0.0 | 0.0 | 0.00 | 0.00 | 0.00 | 90 | 1015.7 |
| 20260507052646 | 44 | 42 | 0.0 | 0.0 | 0.00 | 0.00 | 0.00 | 89 | 1015.8 |
| 20260507052146 | 44 | 42 | 0.0 | 0.0 | 0.00 | 0.00 | 0.00 | 89 | 1015.7 |
| 20260507051646 | 44 | 42 | 0.0 | 0.0 | 0.00 | 0.00 | 0.00 | 89 | 1015.7 |
| 20260507051146 | 44 | 42 | 0.0 | 0.0 | 0.00 | 0.00 | 0.00 | 89 | 1015.6 |
| 20260507050651 | 44 | 42 | 0.0 | 0.0 | 0.00 | 0.00 | 0.00 | 89 | 1015.6 |
| 20260507050148 | 44 | 42 | 0.0 | 0.0 | 0.00 | 0.00 | 0.00 | 89 | 1015.6 |
| 20260507045647 | 44 | 42 | 0.0 | 0.0 | 0.00 | 0.00 | 0.00 | 89 | 1015.5 |
| 20260507045436 | 44 | 42 | 0.0 | 0.0 | 0.00 | 0.00 | 0.00 | 89 | 1015.5 |
| 20260507044646 | 44 | 42 | 0.0 | 0.0 | 0.00 | 0.00 | 0.00 | 89 | 1015.5 |
| 20260507044144 | 44 | 42 | 0.0 | 0.0 | 0.00 | 0.00 | 0.00 | 89 | 1015.5 |
| 20260507043645 | 44 | 42 | 0.0 | 0.0 | 0.00 | 0.00 | 0.00 | 89 | 1015.5 |
| 20260507043147 | 44 | 42 | 0.0 | 0.0 | 0.00 | 0.00 | 0.00 | 89 | 1015.4 |
| 20260507042643 | 44 | 42 | 0.0 | 0.0 | 0.00 | 0.00 | 0.00 | 89 | 1015.4 |
| 20260507042146 | 44 | 42 | 0.0 | 0.0 | 0.00 | 0.00 | 0.00 | 89 | 1015.4 |
| 20260507041648 | 44 | 42 | 0.0 | 0.0 | 0.00 | 0.00 | 0.00 | 89 | 1015.5 |
| 20260507041147 | 44 | 42 | 0.0 | 0.0 | 0.00 | 0.00 | 0.00 | 89 | 1015.4 |
| 20260507040645 | 44 | 42 | 0.0 | 0.0 | 0.00 | 0.00 | 0.00 | 89 | 1015.4 |
| 20260507040143 | 44 | 42 | 0.0 | 0.0 | 0.00 | 0.00 | 0.00 | 89 | 1015.5 |
| 20260507035644 | 44 | 42 | 0.0 | 0.0 | 0.00 | 0.00 | 0.00 | 89 | 1015.5 |
| 20260507035143 | 44 | 42 | 0.0 | 0.0 | 0.00 | 0.00 | 0.00 | 89 | 1015.4 |
| 20260507034646 | 44 | 42 | 0.0 | 0.0 | 0.00 | 0.00 | 0.00 | 89 | 1015.4 |
| 20260507034143 | 44 | 42 | 0.0 | 0.0 | 0.00 | 0.00 | 0.00 | 89 | 1015.5 |
| 20260507033940 | 44 | 42 | 0.0 | 0.0 | 0.00 | 0.00 | 0.00 | 89 | 1015.4 |
| 20260507033144 | 44 | 42 | 0.0 | 0.0 | 0.00 | 0.00 | 0.00 | 89 | 1015.3 |
| 20260507032643 | 45 | 42 | 0.0 | 0.0 | 0.00 | 0.00 | 0.00 | 89 | 1015.3 |
| 20260507032436 | 45 | 42 | 0.0 | 0.0 | 0.00 | 0.00 | 0.00 | 89 | 1015.3 |
| 20260507031929 | 45 | 42 | 0.0 | 0.0 | 0.00 | 0.00 | 0.00 | 89 | 1015.4 |
| 20260507031144 | 45 | 42 | 0.0 | 0.0 | 0.00 | 0.00 | 0.00 | 89 | 1015.4 |
| 20260507030642 | 45 | 42 | 0.0 | 0.0 | 0.00 | 0.00 | 0.00 | 90 | 1015.4 |
| 20260507030141 | 45 | 42 | 0.0 | 0.0 | 0.00 | 0.00 | 0.00 | 89 | 1015.4 |
| 20260507025937 | 45 | 42 | 0.0 | 0.0 | 0.00 | 0.00 | 0.00 | 89 | 1015.4 |
| 20260507025142 | 45 | 42 | 0.0 | 0.0 | 0.00 | 0.00 | 0.00 | 90 | 1015.2 |
| 20260507025115 | 45 | 42 | 0.0 | 0.0 | 0.00 | 0.00 | 0.00 | 90 | 1015.3 |
| 20260507025109 | 45 | 42 | 0.0 | 0.0 | 0.00 | 0.00 | 0.00 | 90 | 1015.3 |
| 20260507023640 | 45 | 42 | 0.0 | 0.0 | 0.00 | 0.00 | 0.00 | 90 | 1015.3 |
| 20260507023141 | 45 | 42 | 0.0 | 0.0 | 0.00 | 0.00 | 0.00 | 90 | 1015.4 |
| 20260507022641 | 45 | 42 | 0.0 | 0.0 | 0.00 | 0.00 | 0.00 | 90 | 1015.4 |
| 20260507022141 | 45 | 42 | 0.0 | 0.0 | 0.00 | 0.00 | 0.00 | 90 | 1015.4 |
| 20260507021643 | 45 | 42 | 0.0 | 0.9 | 0.00 | 0.00 | 0.00 | 90 | 1015.4 |
| 20260507021142 | 45 | 42 | 0.0 | 0.9 | 0.00 | 0.00 | 0.00 | 89 | 1015.4 |
| 20260507020641 | 45 | 42 | 0.0 | 0.0 | 0.00 | 0.00 | 0.00 | 89 | 1015.3 |
| 20260507020140 | 45 | 42 | 0.0 | 0.0 | 0.00 | 0.00 | 0.00 | 89 | 1015.3 |
| 20260507015641 | 45 | 42 | 0.0 | 0.0 | 0.00 | 0.00 | 0.00 | 89 | 1015.2 |
| 20260507015139 | 44 | 42 | 0.0 | 1.7 | 0.00 | 0.00 | 0.00 | 89 | 1015.3 |
| 20260507014930 | 44 | 42 | 0.0 | 1.7 | 0.00 | 0.00 | 0.00 | 88 | 1015.3 |
| 20260507014138 | 44 | 42 | 0.0 | 0.9 | 0.00 | 0.00 | 0.00 | 88 | 1015.2 |
| 20260507013640 | 44 | 42 | 0.0 | 0.0 | 0.00 | 0.00 | 0.00 | 88 | 1015.2 |
| 20260507013141 | 44 | 42 | 0.0 | 0.0 | 0.00 | 0.00 | 0.00 | 88 | 1015.2 |
| 20260507012641 | 44 | 42 | 0.0 | 2.6 | 0.00 | 0.00 | 0.00 | 88 | 1015.2 |
| 20260507012140 | 45 | 42 | 0.0 | 2.6 | 0.00 | 0.00 | 0.00 | 88 | 1015.2 |
| 20260507011638 | 45 | 42 | 0.9 | 2.6 | 0.00 | 0.00 | 0.00 | 88 | 1015.2 |
| 20260507011138 | 45 | 44 | 0.0 | 2.6 | 0.00 | 0.00 | 0.00 | 88 | 1015.1 |
| 20260507010640 | 45 | 44 | 0.0 | 2.6 | 0.00 | 0.00 | 0.00 | 88 | 1015.2 |
| 20260507010139 | 45 | 42 | 0.9 | 1.7 | 0.00 | 0.00 | 0.00 | 88 | 1015.1 |
| 20260507005639 | 45 | 42 | 0.9 | 2.6 | 0.00 | 0.00 | 0.00 | 88 | 1015.1 |
| 20260507005434 | 45 | 42 | 0.9 | 3.5 | 0.00 | 0.00 | 0.00 | 88 | 1015.2 |